Location: Chris' Backyard Observatory
(47.3045°N, 122.2839°W)
Time: 23:46:16
(UTC-08:00)

Daily predictions for brighter satellites

Satellite Brightness Start Highest point End
(mag) Time Altitude Azimuth Time Altitude Azimuth Time Altitude Azimuth
Meteor 1-11 Rocket 4.3 16:42:28 10° NNW 16:48:07 66° W 16:53:36 10° S
MSX 3.9 16:44:18 10° SSE 16:50:05 82° ENE 16:55:53 10° NNW
Cosmos 1437 Rocket 2.8 16:46:45 10° NNW 16:50:34 83° W 16:54:21 10° S
Cosmos 1378 Rocket 4.3 16:47:53 10° SSE 16:51:51 34° E 16:55:53 10° NNE
Cosmos 2034 Rocket 4.1 16:46:06 10° S 16:52:26 89° W 16:58:44 10° N
Cosmos 1743 4.5 16:51:09 10° NE 16:53:07 13° ENE 16:55:04 10° E
Cosmos 405 Rocket 4.5 16:50:37 10° SW 16:53:55 30° WNW 16:57:15 10° N
Cosmos 1975 4.0 16:52:22 10° NNE 16:55:32 22° ENE 16:58:42 10° ESE
Cosmos 2026 Rocket 4.4 16:50:56 10° N 16:57:01 43° ENE 17:03:01 10° SE
SJ-12 3.9 16:54:03 10° SSE 16:58:09 73° ENE 17:02:17 10° N
CZ-4 R/B 2.2 16:56:29 10° SE 16:59:47 28° ENE 17:03:10 10° N
CENTAUR R/B 4.2 16:54:31 10° NW 17:00:00 23° N 17:06:00 10° NE
Cosmos 2369 Rocket 2.7 16:58:05 10° SW 17:03:37 60° WNW 17:09:11 10° NNE
Cosmos 2263 4.4 16:59:08 10° SSW 17:04:47 79° WNW 17:10:33 10° NNE
Lacrosse 5 3.1 17:01:11 10° WNW 17:06:00 46° SW 17:10:49 10° SSE
USA 238 DEB 4.3 17:01:48 10° NW 17:08:18 37° NNE 17:14:51 10° E
USA 238 4.4 17:01:54 10° NW 17:08:23 37° NNE 17:14:56 10° E
USA 161 1.6 17:07:45 10° N 17:10:26 71° WNW 17:13:16 10° SSW
CSL-04 Rocket 3.7 17:05:31 10° SSE 17:10:52 70° ENE 17:16:21 10° N
Cosmos 1271 Rocket 3.9 17:15:21 10° NNE 17:18:16 21° ENE 17:21:11 10° ESE
Cosmos 1536 4.2 17:15:12 10° NNW 17:18:59 42° W 17:22:45 10° SSW
Cosmos 1484 Rocket 2.8 17:15:42 10° SSE 17:19:40 68° ENE 17:23:41 10° N
Okean 3 3.4 17:16:39 10° S 17:20:49 85° E 17:25:03 10° N
Cosmos 2219 3.3 17:18:17 10° NNW 17:23:49 55° ENE 17:29:19 10° SE
Cosmos 2227 Rocket 3.1 17:20:16 10° N 17:25:03 27° NE 17:29:49 10° ESE
Cosmos 1500 3.1 17:22:30 10° N 17:26:20 78° E 17:30:05 10° SSE
SPOT 3 Rocket 4.3 17:22:07 10° ESE 17:26:33 29° ENE 17:30:57 10° N
NOSS 2-3 (D) 4.5 17:23:57 10° S 17:28:16 38° ESE 17:32:07 15° NE
BREEZE-M DEB (TANK) 2.4 17:27:21 10° WNW 17:29:38 63° SSW 17:35:07 10° ESE
Meteor 1-18 Rocket 4.2 17:25:44 10° S 17:31:10 60° E 17:36:43 10° NNE
Cosmos 1455 Rocket 3.8 17:28:04 10° N 17:32:02 30° ENE 17:35:57 10° SE
CZ-2C R/B 4.1 17:27:24 10° SSW 17:32:16 40° W 17:37:09 10° NNW
NOSS 3-1 (C) 4.1 17:29:10 10° WSW 17:34:55 52° NW 17:41:21 11° NE
Cosmos 1544 Rocket 4.1 17:31:30 10° N 17:35:33 34° ENE 17:39:31 10° SE
METEOR-M 4.3 17:30:50 10° SE 17:35:58 51° ENE 17:41:08 10° N
YAOGAN 1 2.6 17:36:30 10° SSE 17:40:44 57° ENE 17:45:00 10° N
NOSS 3-2 (A) 4.5 17:34:24 10° NW 17:41:01 37° NNE 17:46:43 16° E
Cosmos 2279 Rocket 4.0 17:39:11 10° S 17:45:18 59° E 17:51:27 10° NNE
Cosmos 1656 Rocket 3.6 17:39:45 10° SSW 17:45:19 89° ESE 17:50:38 11° NNE
NOAA 12 4.5 17:42:36 10° SE 17:47:29 40° ENE 17:52:23 10° N
Cosmos 1812 3.6 17:44:01 10° SSW 17:47:46 49° WNW 17:51:34 10° N
ISS -3.5 17:44:40 10° WNW 17:47:53 49° NNE 17:49:04 32° ENE
Cosmos 389 Rocket 2.5 17:44:57 10° N 17:48:25 53° ENE 17:51:49 10° SSE
Cosmos 1607 4.2 17:42:42 10° NW 17:49:14 78° SW 17:55:39 10° SSE
COSMO-SKYMED 1 3.1 17:46:57 18° NE 17:49:39 36° E 17:53:40 10° SSE
Gblst 52 Del rocket 4.5 17:45:51 10° WNW 17:51:19 57° N 17:54:56 23° ENE
Cosmos 2297 Rocket 2.8 17:47:51 10° NNW 17:53:01 35° NE 17:56:34 18° ESE
ERS-2 2.3 17:50:42 10° SE 17:54:13 47° ENE 17:57:46 10° N
ATLAS 2AS CENTAUR R/B 3.4 17:47:59 10° S 17:55:13 44° ESE 18:00:18 21° ENE
Cosmos 1818 3.5 17:50:13 10° SSW 17:55:39 83° ESE 17:59:31 20° NE
CORIOLIS 4.5 17:50:55 10° S 17:56:20 71° WSW 18:01:45 10° NNW
SMAP 3.8 17:52:09 10° S 17:56:43 56° W 18:01:18 10° NNW
Meteor 2-4 Rocket 4.3 17:52:24 10° SSE 17:57:10 31° E 17:59:19 23° NE
CZ-2C R/B 3.7 17:53:15 10° NNE 17:57:53 74° ESE 18:02:35 10° S
NOSS 2-3 (E) 3.9 17:53:50 10° SSW 17:58:30 69° SE 18:01:47 24° NE
Meteor 1-12 Rocket 4.2 17:53:25 10° NNW 17:59:07 89° WSW 18:04:50 10° S
Cosmos 1666 2.6 17:55:25 10° N 17:59:08 55° ENE 18:02:49 10° SSE
Abrixas rocket 3.7 17:57:06 10° SSW 17:59:43 22° SSE 18:00:05 22° SE
USA 116 3.1 17:59:46 21° NNE 18:01:58 80° ESE 18:05:08 10° S
Cosmos 158 Rocket 4.3 17:57:36 10° N 18:02:30 40° ENE 18:05:59 17° ESE
MTI 3.9 18:02:25 44° ENE 18:02:55 50° E 18:06:04 10° S
ALOS 2.3 18:00:47 10° SSE 18:05:19 55° ENE 18:09:54 10° N
Cosmos 1975 Rocket 3.2 18:01:09 10° SSW 18:05:38 80° WNW 18:10:08 10° N
Meteor 1-19 Rocket 4.3 18:01:07 10° S 18:06:35 54° E 18:12:01 11° NNE
Aureole 1 Rocket 4.1 18:01:39 10° NNW 18:07:02 77° WSW 18:14:06 10° SSE
ATLAS 3B R/B 2.6 18:00:34 10° NW 18:07:16 60° NE 18:12:36 16° ESE
MOS 1 4.2 18:02:40 10° SSE 18:08:21 77° ENE 18:14:03 10° NNW
Cosmos 1898 Rocket 3.6 18:03:22 10° SSW 18:08:35 77° WNW 18:13:09 14° NNE
Cosmos 1943 Rocket 3.7 18:04:57 10° WSW 18:09:58 32° NW 18:15:02 10° NNE
NOSS 3-1 (A) 4.3 18:05:07 10° WSW 18:10:49 44° NW 18:15:50 16° NNE
Ariane Rocket 4.4 18:07:59 10° SSW 18:12:44 40° W 18:17:31 10° NNW
Cosmos 1655 Rocket 4.2 18:07:56 10° NNW 18:14:18 76° W 18:20:39 10° S
Cosmos 2298 Rocket 3.9 18:10:14 10° SSW 18:15:33 85° ESE 18:19:16 20° NNE
SJ 16-02 3.4 18:13:43 10° SSE 18:14:24 13° SE 18:14:24 13° SE
EO 1 Del DPAF 3.2 18:17:22 53° ENE 18:17:50 57° ESE 18:21:35 10° S
SKYMED 3 4.4 18:17:22 25° NNE 18:19:50 74° ESE 18:24:10 10° S
Okean 1 4.5 18:21:22 10° SSW 18:25:09 42° WNW 18:28:58 10° N
Cosmos 1048 Rocket 4.2 18:22:19 10° NNW 18:27:35 51° ENE 18:29:00 41° ESE
Cosmos 1937 Rocket 3.6 18:22:40 10° SSW 18:27:51 73° WNW 18:31:15 22° NNE
Cosmos 1743 3.4 18:25:31 10° NNW 18:29:18 55° W 18:33:05 10° S
BREEZE-M DEB (TANK) 3.4 18:30:41 10° WNW 18:33:30 89° NNE 18:34:28 54° ESE
Cosmos 1536 Rocket 3.4 18:29:22 10° S 18:33:38 64° E 18:33:38 64° E
NOSS 2-3 (C) 4.1 18:29:19 10° SW 18:34:04 70° NW 18:36:21 35° NNE
FengYun 1-2 T 4.3 18:29:17 10° SE 18:34:44 56° ENE 18:40:15 10° N
CZ-4 R/B 3.6 18:31:35 10° SSW 18:34:49 26° W 18:38:08 10° NW
SKYMED 2 3.7 18:35:33 28° N 18:37:49 73° WNW 18:42:09 10° SSW
PKM 4.4 18:35:56 10° WSW 18:40:46 45° NNW 18:40:55 45° NNW
Cosmos 2266 Rocket 3.8 18:37:18 10° N 18:43:23 90° E 18:49:30 10° S
Meteor 1-23 Rocket 4.2 18:46:57 10° S 18:52:32 62° ESE 18:52:32 62° ESE
CENTAUR R/B 3.6 18:46:03 10° NW 18:52:59 37° NNE 18:53:38 37° NE
Cosmos 2082 3.5 18:47:24 10° NNW 18:53:04 82° ENE 18:54:31 52° SE
USA 238 DEB 3.9 18:52:47 10° NW 18:59:52 75° SW 19:04:47 22° SSE
USA 238 3.9 18:52:53 10° NW 18:59:58 75° SW 19:04:47 23° SSE
FENGYUN 3A 4.3 18:55:07 10° S 19:00:23 53° W 19:05:39 10° NNW
Cosmos 2227 Rocket 2.6 19:03:56 10° NNW 19:09:32 62° WSW 19:12:57 24° S
ISS -0.5 19:21:13 10° WNW 19:21:44 13° WNW 19:21:44 13° WNW
NOSS 3-2 (A) 4.0 19:25:12 10° NW 19:32:40 80° SW 19:34:11 62° SSE
NOSS 3-2 (C) 3.8 19:28:54 10° NW 19:36:22 88° NE 19:36:36 85° ESE
Cosmos 2297 Rocket 3.1 19:31:50 10° NW 19:37:11 44° WSW 19:38:30 38° SW
ATLAS 2AS CENTAUR R/B 3.4 19:38:19 10° WSW 19:46:08 60° NW 19:47:47 51° N
SJ 16-02 4.2 19:51:12 10° SW 19:51:29 12° SW 19:51:29 12° SW
ATLAS 3B R/B 4.0 19:51:46 10° NW 19:57:36 33° WSW 19:59:58 26° SSW
CENTAUR R/B 4.2 20:36:42 10° NW 20:40:50 36° NW 20:40:50 36° NW
